EW5684 Weather Reports


Display with metric or nautical units.
time (UTC)temp
F
wind
direction
speed
MPH
gust
MPH
rain 1hr
in
rain 24hr
in
rain mn
in
humidity
%
barometer
mb
20260902221407 77 0 2.0 3.0 0.00 0.00 0.00 46 1019.8
20260902221124 77 0 0.0 0.0 0.00 0.00 0.00 46 1019.7
20260902220406 77 0 0.0 0.0 0.00 0.00 0.00 46 1019.8
20260902220127 77 0 0.0 0.0 0.00 0.00 0.00 45 1019.7
20260902215627 78 0 0.0 1.0 0.00 0.00 0.00 45 1019.7
20260902214904 78 0 0.0 1.0 0.00 0.00 0.00 45 1019.7
20260902214625 78 0 0.0 1.0 0.00 0.00 0.00 45 1019.6
20260902213904 78 0 0.0 2.0 0.00 0.00 0.00 45 1019.6
20260902213407 78 0 1.0 2.0 0.00 0.00 0.00 45 1019.6
20260902212905 78 0 0.0 1.0 0.00 0.00 0.00 45 1019.7
20260902212406 78 0 0.0 1.0 0.00 0.00 0.00 44 1019.5
20260902211905 78 0 0.0 3.0 0.00 0.00 0.00 44 1019.5
20260902211418 78 0 1.0 3.0 0.00 0.00 0.00 44 1019.5
20260902211122 78 0 1.0 2.0 0.00 0.00 0.00 44 1019.5
20260902210406 78 0 2.0 3.0 0.00 0.00 0.00 44 1019.5
20260902205905 78 0 1.0 3.0 0.00 0.00 0.00 44 1019.5
20260902205406 79 0 2.0 3.0 0.00 0.00 0.00 44 1019.5
20260902204904 79 0 2.0 4.0 0.00 0.00 0.00 44 1019.5
20260902204405 79 0 3.0 4.0 0.00 0.00 0.00 44 1019.6
20260902203905 79 0 1.0 3.0 0.00 0.00 0.00 44 1019.5
20260902203405 79 0 1.0 5.0 0.00 0.00 0.00 44 1019.5
20260902203136 79 0 2.0 5.0 0.00 0.00 0.00 44 1019.4
20260902202406 79 0 1.0 4.0 0.00 0.00 0.00 44 1019.5
20260902202122 80 0 3.0 5.0 0.00 0.00 0.00 44 1019.4
20260902201407 80 0 2.0 5.0 0.00 0.00 0.00 44 1019.2
20260902200904 80 0 2.0 4.0 0.00 0.00 0.00 43 1019.4
20260902200406 80 0 2.0 4.0 0.00 0.00 0.00 43 1019.4
20260902200123 80 0 2.0 6.0 0.00 0.00 0.00 43 1019.2
20260902195334 81 0 3.0 6.0 0.00 0.00 0.00 42 1019.1
20260902194810 81 0 2.0 4.0 0.00 0.00 0.00 42 1019.1
20260902194310 81 0 2.0 4.0 0.00 0.00 0.00 42 1019.0
20260902194032 81 0 2.0 4.0 0.00 0.00 0.00 41 1019.0
20260902193309 81 0 3.0 4.0 0.00 0.00 0.00 41 1019.0
20260902192809 82 0 3.0 4.0 0.00 0.00 0.00 41 1019.0
20260902192314 82 0 3.0 4.0 0.00 0.00 0.00 41 1018.9
20260902192030 82 0 3.0 4.0 0.00 0.00 0.00 40 1018.9
20260902191309 82 0 2.0 4.0 0.00 0.00 0.00 40 1018.9
20260902190808 82 0 3.0 4.0 0.00 0.00 0.00 40 1018.7
20260902190308 83 0 3.0 4.0 0.00 0.00 0.00 39 1018.7
20260902190026 83 0 3.0 4.0 0.00 0.00 0.00 39 1018.6
20260902185309 83 0 2.0 3.0 0.00 0.00 0.00 38 1018.5
20260902184808 83 0 2.0 2.0 0.00 0.00 0.00 37 1018.4
20260902184308 83 0 0.0 4.0 0.00 0.00 0.00 37 1018.4
20260902183808 83 0 3.0 5.0 0.00 0.00 0.00 37 1018.3
20260902183528 83 0 4.0 5.0 0.00 0.00 0.00 38 1018.3
20260902183029 83 0 0.0 0.0 0.00 0.00 0.00 41 1018.3
20260902182306 83 0 0.0 1.0 0.00 0.00 0.00 41 1018.3
20260902181808 83 0 0.0 1.0 0.00 0.00 0.00 40 1018.2
20260902181308 83 0 1.0 1.0 0.00 0.00 0.00 39 1018.2
20260902180813 83 0 1.0 3.0 0.00 0.00 0.00 40 1018.1
20260902180807 83 0 1.0 3.0 0.00 0.00 0.00 40 1018.2
20260902175806 84 0 2.0 3.0 0.00 0.00 0.00 39 1018.1
20260902175307 84 0 2.0 2.0 0.00 0.00 0.00 40 1018.1
20260902174806 85 0 1.0 3.0 0.00 0.00 0.00 37 1018.1
20260902174304 85 244 2.0 3.0 0.00 0.00 0.00 36 1018.0
20260902173806 86 244 2.0 3.0 0.00 0.00 0.00 37 1018.1
20260902173307 86 244 2.0 3.0 0.00 0.00 0.00 36 1018.0
20260902173015 87 243 2.0 3.0 0.00 0.00 0.00 35 1018.0
20260902173005 87 243 2.0 3.0 0.00 0.00 0.00 35 1018.0
20260902171804 87 243 2.0 3.0 0.00 0.00 0.00 33 1018.0
20260902171529 87 243 2.0 3.0 0.00 0.00 0.00 33 1017.9
20260902170805 87 243 2.0 3.0 0.00 0.00 0.00 33 1017.9
20260902170306 87 243 1.0 2.0 0.00 0.00 0.00 34 1017.9
20260902165807 87 243 0.0 3.0 0.00 0.00 0.00 33 1017.9
20260902165308 87 251 0.0 3.0 0.00 0.00 0.00 33 1017.9
20260902164804 87 252 1.0 4.0 0.00 0.00 0.00 32 1018.0
20260902164524 87 252 3.0 4.0 0.00 0.00 0.00 32 1017.9
20260902164029 88 255 4.0 4.0 0.00 0.00 0.00 32 1018.0
20260902163304 88 206 4.0 4.0 0.00 0.00 0.00 32 1017.8
20260902162803 88 228 0.0 4.0 0.00 0.00 0.00 32 1017.8
20260902162527 88 230 1.0 6.0 0.00 0.00 0.00 33 1017.9
20260902161805 88 234 2.0 6.0 0.00 0.00 0.00 33 1017.8
20260902161305 88 209 3.0 5.0 0.00 0.00 0.00 34 1017.8
20260902160804 88 210 2.0 5.0 0.00 0.00 0.00 32 1017.9
20260902160305 88 214 3.0 6.0 0.00 0.00 0.00 32 1018.0
20260902160029 89 188 4.0 6.0 0.00 0.00 0.00 31 1018.0
20260902155306 89 213 3.0 5.0 0.00 0.00 0.00 31 1018.1
20260902154804 90 18 2.0 3.0 0.00 0.00 0.00 31 1018.1
20260902154527 89 104 2.0 5.0 0.00 0.00 0.00 32 1018.1
20260902153802 89 224 2.0 5.0 0.00 0.00 0.00 32 1018.1
20260902153301 89 204 2.0 3.0 0.00 0.00 0.00 32 1018.1
20260902152802 88 221 2.0 6.0 0.00 0.00 0.00 32 1018.2
20260902152533 88 142 2.0 6.0 0.00 0.00 0.00 32 1018.2
20260902151801 88 189 4.0 6.0 0.00 0.00 0.00 32 1018.2
20260902151300 88 247 3.0 6.0 0.00 0.00 0.00 31 1018.3
20260902151029 89 203 3.0 6.0 0.00 0.00 0.00 33 1018.3
20260902150306 89 340 2.0 5.0 0.00 0.00 0.00 32 1018.4
20260902145800 88 196 2.0 5.0 0.00 0.00 0.00 32 1018.4
20260902145300 89 200 2.0 6.0 0.00 0.00 0.00 33 1018.5
20260902144800 89 154 1.0 6.0 0.00 0.00 0.00 32 1018.5
20260902144300 90 131 5.0 6.0 0.00 0.00 0.00 32 1018.6
20260902143758 89 110 4.0 6.0 0.00 0.00 0.00 33 1018.6
20260902143258 88 197 1.0 6.0 0.00 0.00 0.00 34 1018.6
20260902142758 87 274 3.0 7.0 0.00 0.00 0.00 35 1018.7
20260902142258 87 250 5.0 7.0 0.00 0.00 0.00 35 1018.7
20260902141758 87 264 3.0 7.0 0.00 0.00 0.00 34 1018.8
20260902141258 88 240 2.0 4.0 0.00 0.00 0.00 33 1018.8
20260902140758 88 259 3.0 4.0 0.00 0.00 0.00 35 1018.8
20260902140258 87 241 3.0 4.0 0.00 0.00 0.00 34 1018.8
20260902135757 87 204 1.0 4.0 0.00 0.00 0.00 35 1018.8
20260902135257 87 216 2.0 5.0 0.00 0.00 0.00 36 1018.8
20260902134758 87 111 4.0 6.0 0.00 0.00 0.00 36 1019.0
20260902134257 87 202 2.0 6.0 0.00 0.00 0.00 37 1019.0
20260902133758 88 196 4.0 6.0 0.00 0.00 0.00 37 1019.0
20260902133257 87 24 2.0 6.0 0.00 0.00 0.00 36 1019.0
20260902132758 87 71 3.0 6.0 0.00 0.00 0.00 36 1019.1
20260902132257 87 62 3.0 6.0 0.00 0.00 0.00 36 1019.1
20260902131757 87 87 3.0 6.0 0.00 0.00 0.00 38 1019.2
20260902131519 87 271 2.0 5.0 0.00 0.00 0.00 37 1019.4
20260902130951 88 138 2.0 5.0 0.00 0.00 0.00 35 1019.5
20260902130940 87 321 1.0 5.0 0.00 0.00 0.00 36 1019.4
20260902125757 88 107 2.0 7.0 0.00 0.00 0.00 36 1019.5
20260902125256 87 76 3.0 7.0 0.00 0.00 0.00 36 1019.5
20260902124757 87 309 0.0 5.0 0.00 0.00 0.00 38 1019.7
20260902124256 86 247 3.0 10.0 0.00 0.00 0.00 38 1019.7
20260902124246 87 144 5.0 10.0 0.00 0.00 0.00 37 1019.8
20260902123255 87 73 3.0 4.0 0.00 0.00 0.00 37 1019.8
20260902122756 87 38 2.0 6.0 0.00 0.00 0.00 36 1019.8
20260902122255 86 243 2.0 6.0 0.00 0.00 0.00 38 1019.9
20260902122022 87 168 2.0 5.0 0.00 0.00 0.00 38 1019.9
20260902121257 86 228 1.0 5.0 0.00 0.00 0.00 38 1019.9
20260902120756 86 20 2.0 6.0 0.00 0.00 0.00 38 1019.9
20260902120257 85 58 4.0 6.0 0.00 0.00 0.00 39 1020.0
20260902115757 86 51 3.0 4.0 0.00 0.00 0.00 39 1020.0
20260902115256 85 99 2.0 4.0 0.00 0.00 0.00 39 1020.0
20260902115018 85 120 0.0 5.0 0.00 0.00 0.00 40 1020.1
20260902114256 84 151 3.0 5.0 0.00 0.00 0.00 41 1020.2
20260902113756 84 145 3.0 5.0 0.00 0.00 0.00 42 1020.3
20260902113256 84 159 3.0 4.0 0.00 0.00 0.00 41 1020.4
20260902112754 84 45 2.0 4.0 0.00 0.00 0.00 41 1020.5
20260902112255 84 66 2.0 4.0 0.00 0.00 0.00 41 1020.5
20260902111754 84 75 1.0 6.0 0.00 0.00 0.00 41 1020.5
20260902111254 83 103 3.0 6.0 0.00 0.00 0.00 41 1020.6
20260902110754 83 65 1.0 6.0 0.00 0.00 0.00 41 1020.6
20260902110255 84 71 5.0 10.0 0.00 0.00 0.00 40 1020.8
20260902110238 84 109 4.0 10.0 0.00 0.00 0.00 40 1020.8
20260902105254 82 35 3.0 7.0 0.00 0.00 0.00 42 1020.8
20260902104753 82 59 4.0 7.0 0.00 0.00 0.00 42 1020.9
20260902104253 83 65 4.0 6.0 0.00 0.00 0.00 42 1021.0
20260902103753 82 65 5.0 6.0 0.00 0.00 0.00 43 1021.0
20260902103253 82 117 2.0 7.0 0.00 0.00 0.00 43 1021.1
20260902102753 82 0 5.0 7.0 0.00 0.00 0.00 43 1021.2
20260902102253 82 76 2.0 7.0 0.00 0.00 0.00 42 1021.2
20260902101753 82 25 5.0 10.0 0.00 0.00 0.00 43 1021.2
20260902101253 82 82 2.0 10.0 0.00 0.00 0.00 43 1021.2
20260902100754 82 96 6.0 7.0 0.00 0.00 0.00 43 1021.3
20260902100735 82 48 6.0 9.0 0.00 0.00 0.00 42 1021.3
20260902095753 82 62 5.0 9.0 0.00 0.00 0.00 42 1021.3
20260902095510 82 42 5.0 7.0 0.00 0.00 0.00 42 1021.3
20260902094752 82 75 5.0 7.0 0.00 0.00 0.00 43 1021.3
20260902094252 82 72 3.0 6.0 0.00 0.00 0.00 42 1021.3
20260902093753 81 69 3.0 9.0 0.00 0.00 0.00 44 1021.4
20260902093252 80 86 6.0 10.0 0.00 0.00 0.00 45 1021.4
20260902092752 80 75 5.0 10.0 0.00 0.00 0.00 45 1021.5
20260902092251 79 0 4.0 9.0 0.00 0.00 0.00 45 1021.4
20260902091752 78 0 4.0 9.0 0.00 0.00 0.00 45 1021.4
20260902091252 78 0 4.0 5.0 0.00 0.00 0.00 46 1021.5
20260902091010 78 0 3.0 5.0 0.00 0.00 0.00 46 1021.5
20260902090252 78 0 3.0 7.0 0.00 0.00 0.00 46 1021.6
20260902090012 78 0 2.0 7.0 0.00 0.00 0.00 46 1021.6
20260902085251 78 0 5.0 7.0 0.00 0.00 0.00 46 1021.5
20260902084751 78 0 5.0 9.0 0.00 0.00 0.00 46 1021.5
20260902084251 78 0 4.0 9.0 0.00 0.00 0.00 46 1021.5
20260902083752 78 0 3.0 7.0 0.00 0.00 0.00 46 1021.5
20260902083251 78 0 6.0 9.0 0.00 0.00 0.00 45 1021.4
20260902082750 77 0 5.0 9.0 0.00 0.00 0.00 45 1021.4
20260902082250 78 0 4.0 9.0 0.00 0.00 0.00 44 1021.3
20260902081751 78 0 4.0 5.0 0.00 0.00 0.00 44 1021.3
20260902081250 78 0 2.0 6.0 0.00 0.00 0.00 43 1021.3
20260902080750 77 0 2.0 6.0 0.00 0.00 0.00 43 1021.3
20260902080250 77 0 3.0 5.0 0.00 0.00 0.00 44 1021.3
20260902075750 77 0 2.0 4.0 0.00 0.00 0.00 44 1021.2
20260902075731 77 0 2.0 4.0 0.00 0.00 0.00 44 1021.1
20260902074749 77 0 3.0 6.0 0.00 0.00 0.00 43 1021.2
20260902074249 77 0 3.0 6.0 0.00 0.00 0.00 43 1021.1
20260902073750 77 0 3.0 5.0 0.00 0.00 0.00 43 1021.2
20260902073511 77 0 3.0 5.0 0.00 0.00 0.00 43 1021.1
20260902072749 76 0 2.0 4.0 0.00 0.00 0.00 42 1021.1
20260902072515 76 0 2.0 4.0 0.00 0.00 0.00 41 1021.1
20260902071749 76 0 3.0 4.0 0.00 0.00 0.00 41 1021.0
20260902071249 76 0 3.0 4.0 0.00 0.00 0.00 38 1021.0
20260902070749 75 0 0.0 3.0 0.00 0.00 0.00 38 1021.1
20260902070248 75 0 0.0 2.0 0.00 0.00 0.00 37 1021.1
20260902065749 75 0 0.0 3.0 0.00 0.00 0.00 37 1021.1
20260902065514 75 0 2.0 3.0 0.00 0.00 0.00 37 1021.1
20260902064748 74 0 2.0 3.0 0.00 0.00 0.00 38 1021.1
20260902064507 74 0 1.0 4.0 0.00 0.00 0.00 38 1021.1
20260902064013 74 0 3.0 4.0 0.00 0.00 0.00 38 1021.0
20260902063249 73 0 2.0 4.0 0.00 0.00 0.00 38 1020.9
20260902062748 73 0 2.0 4.0 0.00 0.00 0.00 38 1020.9
20260902062248 73 0 2.0 2.0 0.00 0.00 0.00 39 1020.9
20260902061748 72 0 1.0 2.0 0.00 0.00 0.00 39 1020.7
20260902061513 72 0 1.0 3.0 0.00 0.00 0.00 40 1020.7
20260902060748 72 0 2.0 3.0 0.00 0.00 0.00 41 1020.8
20260902060728 72 0 0.0 2.0 0.00 0.00 0.00 43 1020.8
20260902060009 71 0 0.0 1.0 0.00 0.00 0.00 44 1020.7
20260902055247 71 0 0.0 0.0 0.00 0.00 0.00 44 1020.7
20260902054747 71 0 0.0 1.0 0.00 0.00 0.00 45 1020.6
20260902054504 71 0 0.0 1.0 0.00 0.00 0.00 45 1020.6
20260902053747 71 0 0.0 1.0 0.00 0.00 0.00 44 1020.5
20260902053247 71 0 0.0 1.0 0.00 0.00 0.00 44 1020.5
20260902052747 71 0 0.0 0.0 0.00 0.00 0.00 44 1020.4
20260902052247 71 0 0.0 1.0 0.00 0.00 0.00 44 1020.4
20260902052012 71 0 0.0 2.0 0.00 0.00 0.00 44 1020.3
20260902051732 70 0 0.0 2.0 0.00 0.00 0.00 44 1020.3
20260902050746 70 0 0.0 0.0 0.00 0.00 0.00 45 1020.2
20260902050509 70 0 0.0 0.0 0.00 0.00 0.00 44 1020.3
20260902050008 70 0 0.0 0.0 0.00 0.00 0.00 45 1020.2
20260902045247 70 0 0.0 0.0 0.00 0.00 0.00 45 1020.2
20260902044746 70 0 0.0 0.0 0.00 0.00 0.00 45 1020.3
20260902044245 70 0 0.0 0.0 0.00 0.00 0.00 46 1020.2
20260902043745 70 0 0.0 0.0 0.00 0.00 0.00 48 1020.2
20260902043246 70 0 0.0 0.0 0.00 0.00 0.00 49 1020.2
20260902042745 70 0 0.0 0.0 0.00 0.00 0.00 49 1020.1
20260902042245 70 0 0.0 0.0 0.00 0.00 0.00 49 1020.2
20260902042009 70 0 0.0 0.0 0.00 0.00 0.00 49 1020.2
20260902041245 70 0 0.0 0.0 0.00 0.00 0.00 49 1020.1
20260902040745 70 0 0.0 0.0 0.00 0.00 0.00 48 1020.1
20260902040508 70 0 0.0 0.0 0.00 0.00 0.00 48 1020.2
20260902035745 70 0 0.0 0.0 0.00 0.00 0.00 47 1020.2
20260902035245 70 0 0.0 0.0 0.00 0.00 0.00 48 1020.1
20260902034744 70 0 0.0 2.0 0.00 0.00 0.00 47 1020.1
20260902034515 71 0 0.0 2.0 0.00 0.00 0.00 47 1020.1
20260902033744 71 0 0.0 0.0 0.00 0.00 0.00 47 1020.1
20260902033244 71 0 0.0 1.0 0.00 0.00 0.00 47 1020.0
20260902032744 71 0 0.0 1.0 0.00 0.00 0.00 46 1020.1
20260902032244 72 0 1.0 1.0 0.00 0.00 0.00 45 1020.1
20260902031743 72 0 0.0 0.0 0.00 0.00 0.00 44 1020.1
20260902031244 73 0 0.0 3.0 0.00 0.00 0.00 44 1020.0
20260902030743 73 0 0.0 3.0 0.00 0.00 0.00 42 1020.0
20260902030244 73 0 1.0 3.0 0.00 0.00 0.00 42 1020.1
20260902025744 73 0 0.0 3.0 0.00 0.00 0.00 42 1020.0
20260902025243 73 0 2.0 3.0 0.00 0.00 0.00 42 1020.0
20260902024743 73 0 1.0 3.0 0.00 0.00 0.00 42 1020.0
20260902024516 73 0 0.0 1.0 0.00 0.00 0.00 42 1020.0
20260902023742 73 0 0.0 2.0 0.00 0.00 0.00 42 1020.0
20260902023243 73 0 1.0 2.0 0.00 0.00 0.00 42 1020.0
20260902022742 73 0 1.0 2.0 0.00 0.00 0.00 42 1020.0
20260902022242 73 0 2.0 2.0 0.00 0.00 0.00 42 1019.9
20260902021743 73 0 2.0 2.0 0.00 0.00 0.00 43 1020.0
20260902021243 73 0 0.0 2.0 0.00 0.00 0.00 43 1019.9
20260902020742 73 0 1.0 2.0 0.00 0.00 0.00 42 1019.9
20260902020501 73 0 1.0 2.0 0.00 0.00 0.00 43 1019.9
20260902015742 73 0 1.0 2.0 0.00 0.00 0.00 43 1019.9
20260902015242 74 0 2.0 2.0 0.00 0.00 0.00 43 1020.0
20260902014742 74 0 1.0 3.0 0.00 0.00 0.00 43 1019.9
20260902014241 74 0 1.0 3.0 0.00 0.00 0.00 43 1020.0
20260902013743 74 0 2.0 3.0 0.00 0.00 0.00 43 1020.0
20260902013242 74 0 2.0 3.0 0.00 0.00 0.00 43 1020.0
20260902012741 74 0 2.0 4.0 0.00 0.00 0.00 42 1019.9
20260902012241 75 0 3.0 4.0 0.00 0.00 0.00 42 1020.0
20260902011741 75 0 2.0 4.0 0.00 0.00 0.00 42 1019.8
20260902011241 75 0 3.0 5.0 0.00 0.00 0.00 42 1019.8
20260902010741 75 0 2.0 5.0 0.00 0.00 0.00 42 1020.0
20260902010241 75 0 2.0 4.0 0.00 0.00 0.00 42 1019.9
20260902005741 75 0 2.0 4.0 0.00 0.00 0.00 42 1019.9
20260902005240 75 0 1.0 5.0 0.00 0.00 0.00 42 1020.0
20260902004741 75 0 2.0 5.0 0.00 0.00 0.00 42 1020.0
20260902004241 75 0 3.0 5.0 0.00 0.00 0.00 41 1019.9
20260902003741 75 0 2.0 4.0 0.00 0.00 0.00 41 1019.9
20260902003240 75 0 1.0 4.0 0.00 0.00 0.00 41 1019.9
20260902003006 76 0 2.0 6.0 0.00 0.00 0.00 41 1019.9
20260902002240 76 0 3.0 6.0 0.00 0.00 0.00 41 1019.9
20260902001740 76 0 3.0 6.0 0.00 0.00 0.00 41 1019.9
20260902001239 76 0 4.0 5.0 0.00 0.00 0.00 41 1019.9
20260902000740 76 0 4.0 5.0 0.00 0.00 0.00 41 1019.9
20260902000241 76 0 3.0 5.0 0.00 0.00 0.00 41 1020.0
20260901235739 76 0 3.0 5.0 0.00 0.00 0.00 41 1020.0
20260901235239 76 0 4.0 4.0 0.00 0.00 0.00 41 1019.9
20260901234739 76 0 3.0 5.0 0.00 0.00 0.00 41 1020.0
20260901234239 76 0 3.0 6.0 0.00 0.00 0.00 41 1020.0
20260901233738 76 0 3.0 6.0 0.00 0.00 0.00 41 1019.9
20260901233239 76 0 2.0 4.0 0.00 0.00 0.00 42 1019.9
20260901232738 76 0 2.0 4.0 0.00 0.00 0.00 42 1019.9
20260901232238 76 0 2.0 5.0 0.00 0.00 0.00 42 1019.9
20260901231739 76 0 2.0 5.0 0.00 0.00 0.00 42 1019.9
20260901231238 76 0 2.0 4.0 0.00 0.00 0.00 42 1019.9
20260901230739 76 0 3.0 5.0 0.00 0.00 0.00 42 1019.9
20260901230238 76 0 3.0 5.0 0.00 0.00 0.00 42 1020.0
20260901225959 76 0 2.0 4.0 0.00 0.00 0.00 42 1020.0
20260901225238 76 0 3.0 5.0 0.00 0.00 0.00 42 1020.1
20260901224738 76 0 2.0 5.0 0.00 0.00 0.00 42 1020.2
20260901224238 76 0 2.0 4.0 0.00 0.00 0.00 43 1020.2
20260901224001 76 0 3.0 4.0 0.00 0.00 0.00 43 1020.2
20260901223237 76 0 4.0 5.0 0.00 0.00 0.00 43 1020.1
20260901222736 76 0 4.0 5.0 0.00 0.00 0.00 43 1020.0
20260901222237 76 0 3.0 5.0 0.00 0.00 0.00 43 1020.1
20260901221737 76 0 3.0 5.0 0.00 0.00 0.00 43 1020.1